Regional Weather Roundup
Issued by NWS

Home | Current Version | Previous Version | Graphics & Text | Print | Product List | Glossary On
Versions: 1 2 3 4 5 6 7 8 9 10 11 12 13 14 15 16 17 18 19 20 21 22 23 24 25 26 27
000
ASUS45 KCYS 292310
RWRWY

WYOMING REGIONAL WEATHER ROUNDUP
NATIONAL WEATHER SERVICE CHEYENNE WY
500 PM MDT FRI APR 29 2016

NOTE:  "FAIR" INDICATES FEW OR NO CLOUDS BELOW 12,000 FEET
WITH NO SIGNIFICANT WEATHER AND/OR OBSTRUCTIONS TO VISIBILITY.

WYZ001-300000-
YELLOWSTONE NATIONAL PARK

CITY           SKY/WX    TMP DP  RH WIND       PRES   REMARKS
LK YELLOWSTONE   N/A     41  20  43 E5        29.88S
W YELLOWSTONE  NOT AVBL

$$
WYZ002>013-054>058-071-098>099-300000-
NORTHERN WYOMING

CITY           SKY/WX    TMP DP  RH WIND       PRES   REMARKS
JACKSON        NOT AVBL
CODY           CLOUDY    45  30  57 CALM      29.93S
GREYBULL       CLOUDY    51  26  37 SW6       29.91S
WORLAND        CLOUDY    47  32  56 SE7       29.92S
SHERIDAN       CLOUDY    47  31  53 SE8       29.97F
BUFFALO          N/A    N/A N/A N/A MISG      29.98S
GILLETTE       CLOUDY    45  35  68 NE12      29.96F
HULETT         CLOUDY    41  34  75 E16G25    30.01S
NEWCASTLE      CLOUDY    43  34  70 S5        29.97F

$$
WYZ014>020-022>026-101>103-300000-
CENTRAL WYOMING

CITY           SKY/WX    TMP DP  RH WIND       PRES   REMARKS
BIG PINEY      FAIR      45  24  43 S5G16     29.86F
PINEDALE       CLOUDY    43  27  52 S3        29.87S
DUBOIS         CLOUDY    37  28  70 E13       29.89S WCI  29
LANDER         LGT RAIN  38  33  82 NE6       29.92R WCI  33
RIVERTON       LGT RAIN  38  35  89 NE9       29.94S WCI  31
CASPER         LGT RAIN  37  32  82 E16       29.93S WCI  28
DOUGLAS        CLOUDY    41  32  70 E13       29.96S

$$
WYZ021-027>030-104>119-300000-
SOUTHERN WYOMING

CITY           SKY/WX    TMP DP  RH WIND       PRES   REMARKS
EVANSTON       FAIR      42  26  53 N6        29.86F
KEMMERER       CLOUDY    39  27  60 CALM      29.88S
FORT BRIDGER   CLOUDY    39  34  81 CALM      29.90F
ROCK SPRINGS   CLOUDY    40  29  64 NE10      29.88S WCI  33
DIXON          CLOUDY    44  32  62 NE13      29.84F
RAWLINS        CLOUDY    35  32  88 NE18      29.87S FOG     WCI  24
SARATOGA       DRIZZLE   37  36  93 NW8       29.84S WCI  31
LARAMIE        LGT SNOW  32  27  81 SE13      29.87F WCI  22
CHEYENNE       SNOW      32  31  96 CALM      29.91F VSB 1/2
TORRINGTON     LGT RAIN  40  37  89 E17       29.95R WCI  31
PINE BLUFFS    LGT SNOW  32  32 100 N5        29.93F VSB 1   WCI  27

$$




USA.gov is the U.S. government's official web portal to all federal, state and local government web resources and services.